Location: F?ge?el
(45.8833°N, 22.5833°E)
Time: 12:54:23
(UTC+00:00)

Cosmos 407 Rocket - Pass Details

Date: 17 November 2025
Orbit: 740 x 780 km, 74.0° (Epoch: 11 December)

Event Time Altitude Azimuth Distance (km) Brightness Sun altitude
Rises 15:21:11 0° 175° (S) 3,208 7.0 -4.8°
Reaches altitude 10° 15:23:43 10° 166° (SSE) 2,280 6.1 -5.2°
Maximum altitude 15:28:22 35° 102° (ESE) 1,210 4.2 -5.9°
Drops below altitude 10° 15:32:59 10° 38° (NE) 2,274 5.4 -6.7°
Enters shadow 15:35:15 - 30° (NNE) 3,102 6.2 -7.1°
